Time,TemperatureF,DewpointF,PressureIn,WindDirection,WindDirectionDegrees,WindSpeedMPH,WindSpeedGustMPH,Humidity,HourlyPrecipIn,Conditions,Clouds,dailyrainin,SoftwareType,DateUTC
2013-05-01 00:00:00,36.9,21.3,30.06,West,262,10.0,15.0,53,0.00,,,-99.99,Weather View 32 v70,2013-05-01 05:00:00,
2013-05-01 00:10:00,36.7,20.7,30.06,West,274,8.0,15.0,52,0.00,,,-99.99,Weather View 32 v70,2013-05-01 05:10:00,
2013-05-01 00:15:00,36.7,20.7,30.06,WNW,283,8.0,15.0,52,0.00,,,-99.99,Weather View 32 v70,2013-05-01 05:15:00,
2013-05-01 00:20:00,36.5,21.0,30.06,NNW,333,8.0,15.0,53,0.00,,,-99.99,Weather View 32 v70,2013-05-01 05:20:00,
2013-05-01 00:25:00,36.5,21.0,30.06,West,261,7.0,15.0,53,0.00,,,-99.99,Weather View 32 v70,2013-05-01 05:25:00,
2013-05-01 00:35:00,36.3,20.8,30.06,WNW,293,11.0,15.0,53,0.00,,,-99.99,Weather View 32 v70,2013-05-01 05:35:00,
2013-05-01 00:40:00,36.1,19.7,30.06,WNW,296,8.0,15.0,51,0.00,,,-99.99,Weather View 32 v70,2013-05-01 05:40:00,
2013-05-01 00:45:00,36.0,19.6,30.06,WNW,287,10.0,15.0,51,0.00,,,-99.99,Weather View 32 v70,2013-05-01 05:45:00,
2013-05-01 00:55:00,35.8,19.4,30.06,West,259,6.0,15.0,51,0.00,,,-99.99,Weather View 32 v70,2013-05-01 05:55:00,
2013-05-01 01:00:00,35.6,19.2,30.09,WSW,257,13.0,15.0,51,0.00,,,-99.99,Weather View 32 v70,2013-05-01 06:00:00,
2013-05-01 01:10:00,35.4,19.1,30.09,SSW,202,8.0,15.0,51,0.00,,,-99.99,Weather View 32 v70,2013-05-01 06:10:00,
2013-05-01 01:15:00,35.2,18.9,30.06,NW,316,12.0,15.0,51,0.00,,,-99.99,Weather View 32 v70,2013-05-01 06:15:00,
2013-05-01 01:20:00,35.1,18.3,30.06,WNW,282,8.0,15.0,50,0.00,,,-99.99,Weather View 32 v70,2013-05-01 06:20:00,
2013-05-01 01:30:00,34.9,18.1,30.06,WSW,250,8.0,15.0,50,0.00,,,-99.99,Weather View 32 v70,2013-05-01 06:30:00,
2013-05-01 01:35:00,34.7,17.5,30.06,NW,317,8.0,15.0,49,0.00,,,-99.99,Weather View 32 v70,2013-05-01 06:35:00,
2013-05-01 01:40:00,34.5,16.8,30.06,West,264,11.0,15.0,48,0.00,,,-99.99,Weather View 32 v70,2013-05-01 06:40:00,
2013-05-01 01:50:00,34.3,16.2,30.09,West,279,6.0,15.0,47,0.00,,,-99.99,Weather View 32 v70,2013-05-01 06:50:00,
2013-05-01 01:55:00,34.2,17.0,30.09,WSW,258,8.0,13.0,49,0.00,,,-99.99,Weather View 32 v70,2013-05-01 06:55:00,
2013-05-01 02:01:00,34.2,17.4,30.09,NW,314,4.0,13.0,50,0.00,,,-99.99,Weather View 32 v70,2013-05-01 07:01:00,
2013-05-01 02:10:00,34.0,17.3,30.09,WNW,299,7.0,13.0,50,0.00,,,-99.99,Weather View 32 v70,2013-05-01 07:10:00,
2013-05-01 02:15:00,33.8,17.1,30.12,SW,236,8.0,13.0,50,0.00,,,-99.99,Weather View 32 v70,2013-05-01 07:15:00,
2013-05-01 02:20:00,33.8,17.1,30.12,NW,306,6.0,13.0,50,0.00,,,-99.99,Weather View 32 v70,2013-05-01 07:20:00,
2013-05-01 02:30:00,33.6,16.9,30.12,NNW,334,6.0,13.0,50,0.00,,,-99.99,Weather View 32 v70,2013-05-01 07:30:00,
2013-05-01 02:35:00,33.4,16.8,30.12,NW,322,5.0,13.0,50,0.00,,,-99.99,Weather View 32 v70,2013-05-01 07:35:00,
2013-05-01 02:40:00,33.3,17.1,30.12,WSW,255,7.0,13.0,51,0.00,,,-99.99,Weather View 32 v70,2013-05-01 07:40:00,
2013-05-01 02:50:00,33.3,17.1,30.12,West,259,8.0,12.0,51,0.00,,,-99.99,Weather View 32 v70,2013-05-01 07:50:00,
2013-05-01 02:55:00,33.1,17.4,30.12,WNW,285,8.0,12.0,52,0.00,,,-99.99,Weather View 32 v70,2013-05-01 07:55:00,
2013-05-01 03:00:00,33.1,17.4,30.12,NW,306,8.0,12.0,52,0.00,,,-99.99,Weather View 32 v70,2013-05-01 08:00:00,
2013-05-01 03:10:00,32.7,17.0,30.12,West,265,8.0,12.0,52,0.00,,,-99.99,Weather View 32 v70,2013-05-01 08:10:00,
2013-05-01 03:15:00,32.7,16.6,30.12,WNW,292,7.0,12.0,51,0.00,,,-99.99,Weather View 32 v70,2013-05-01 08:15:00,
2013-05-01 03:20:00,32.7,16.6,30.12,NW,312,6.0,12.0,51,0.00,,,-99.99,Weather View 32 v70,2013-05-01 08:20:00,
2013-05-01 03:25:00,32.5,16.4,30.12,WSW,243,8.0,11.0,51,0.00,,,-99.99,Weather View 32 v70,2013-05-01 08:25:00,
2013-05-01 03:35:00,32.5,16.4,30.12,WSW,250,5.0,12.0,51,0.00,,,-99.99,Weather View 32 v70,2013-05-01 08:35:00,
2013-05-01 03:40:00,32.5,16.9,30.12,WSW,250,8.0,12.0,52,0.00,,,-99.99,Weather View 32 v70,2013-05-01 08:40:00,
2013-05-01 03:50:00,32.2,16.5,30.12,SW,230,6.0,12.0,52,0.00,,,-99.99,Weather View 32 v70,2013-05-01 08:50:00,
2013-05-01 03:55:00,32.2,17.0,30.12,NNW,336,6.0,12.0,53,0.00,,,-99.99,Weather View 32 v70,2013-05-01 08:55:00,
2013-05-01 04:00:00,32.2,17.0,30.15,WNW,292,4.0,12.0,53,0.00,,,-99.99,Weather View 32 v70,2013-05-01 09:00:00,
2013-05-01 04:10:00,32.0,17.2,30.15,WNW,302,5.0,12.0,54,0.00,,,-99.99,Weather View 32 v70,2013-05-01 09:10:00,
2013-05-01 04:15:00,32.0,17.2,30.15,WSW,250,6.0,12.0,54,0.00,,,-99.99,Weather View 32 v70,2013-05-01 09:15:00,
2013-05-01 04:20:00,31.8,17.1,30.15,WNW,295,5.0,12.0,54,0.00,,,-99.99,Weather View 32 v70,2013-05-01 09:20:00,
2013-05-01 04:25:00,31.8,17.1,30.15,West,264,6.0,12.0,54,0.00,,,-99.99,Weather View 32 v70,2013-05-01 09:25:00,
2013-05-01 04:35:00,31.6,17.7,30.15,West,264,5.0,11.0,56,0.00,,,-99.99,Weather View 32 v70,2013-05-01 09:35:00,
2013-05-01 04:45:00,31.5,18.0,30.18,WSW,246,5.0,11.0,57,0.00,,,-99.99,Weather View 32 v70,2013-05-01 09:45:00,
2013-05-01 04:50:00,31.3,17.8,30.18,WNW,299,6.0,11.0,57,0.00,,,-99.99,Weather View 32 v70,2013-05-01 09:50:00,
2013-05-01 05:00:00,31.1,17.6,30.18,WSW,256,6.0,9.0,57,0.00,,,-99.99,Weather View 32 v70,2013-05-01 10:00:00,
2013-05-01 05:05:00,31.1,17.6,30.18,WNW,303,6.0,9.0,57,0.00,,,-99.99,Weather View 32 v70,2013-05-01 10:05:00,
2013-05-01 05:15:00,30.9,17.5,30.15,SW,235,3.0,9.0,57,0.00,,,-99.99,Weather View 32 v70,2013-05-01 10:15:00,
2013-05-01 05:20:00,30.9,17.5,30.15,West,279,6.0,9.0,57,0.00,,,-99.99,Weather View 32 v70,2013-05-01 10:20:00,
2013-05-01 05:30:00,30.9,17.1,30.18,WSW,251,8.0,9.0,56,0.00,,,-99.99,Weather View 32 v70,2013-05-01 10:30:00,
2013-05-01 05:35:00,30.9,17.1,30.18,WNW,293,6.0,9.0,56,0.00,,,-99.99,Weather View 32 v70,2013-05-01 10:35:00,
2013-05-01 05:45:00,30.9,17.5,30.18,WSW,256,5.0,10.0,57,0.00,,,-99.99,Weather View 32 v70,2013-05-01 10:45:00,
2013-05-01 05:55:00,30.7,17.3,30.18,WSW,254,6.0,10.0,57,0.00,,,-99.99,Weather View 32 v70,2013-05-01 10:55:00,
2013-05-01 06:00:00,30.7,17.3,30.21,WNW,291,4.0,10.0,57,0.00,,,-99.99,Weather View 32 v70,2013-05-01 11:00:00,
2013-05-01 06:10:00,30.6,16.7,30.21,West,265,4.0,10.0,56,0.00,,,-99.99,Weather View 32 v70,2013-05-01 11:10:00,
2013-05-01 06:15:00,30.6,17.1,30.21,WSW,256,6.0,10.0,57,0.00,,,-99.99,Weather View 32 v70,2013-05-01 11:15:00,
2013-05-01 06:25:00,30.6,17.5,30.21,WSW,257,6.0,10.0,58,0.00,,,-99.99,Weather View 32 v70,2013-05-01 11:25:00,
2013-05-01 06:30:00,30.6,17.5,30.24,West,265,4.0,10.0,58,0.00,,,-99.99,Weather View 32 v70,2013-05-01 11:30:00,
2013-05-01 06:40:00,30.7,17.3,30.24,WNW,287,6.0,10.0,57,0.00,,,-99.99,Weather View 32 v70,2013-05-01 11:40:00,
2013-05-01 06:50:00,30.6,17.5,30.24,WSW,240,8.0,10.0,58,0.00,,,-99.99,Weather View 32 v70,2013-05-01 11:50:00,
2013-05-01 06:55:00,30.6,17.9,30.24,West,273,8.0,10.0,59,0.00,,,-99.99,Weather View 32 v70,2013-05-01 11:55:00,
2013-05-01 07:04:00,30.6,17.9,30.27,West,270,6.0,10.0,59,0.00,,,-99.99,Weather View 32 v70,2013-05-01 12:04:00,
2013-05-01 07:10:00,30.7,18.1,30.27,WSW,251,7.0,10.0,59,0.00,,,-99.99,Weather View 32 v70,2013-05-01 12:10:00,
2013-05-01 07:15:00,30.7,17.7,30.27,West,265,4.0,10.0,58,0.00,,,-99.99,Weather View 32 v70,2013-05-01 12:15:00,
2013-05-01 07:20:00,30.7,17.7,30.27,WSW,249,8.0,10.0,58,0.00,,,-99.99,Weather View 32 v70,2013-05-01 12:20:00,
2013-05-01 07:30:00,30.9,17.9,30.30,West,270,6.0,10.0,58,0.00,,,-99.99,Weather View 32 v70,2013-05-01 12:30:00,
2013-05-01 07:35:00,30.9,17.9,30.30,WSW,257,6.0,10.0,58,0.00,,,-99.99,Weather View 32 v70,2013-05-01 12:35:00,
2013-05-01 07:45:00,31.3,17.8,30.30,West,261,6.0,10.0,57,0.00,,,-99.99,Weather View 32 v70,2013-05-01 12:45:00,
2013-05-01 07:55:00,31.5,17.6,30.30,WSW,249,5.0,10.0,56,0.00,,,-99.99,Weather View 32 v70,2013-05-01 12:55:00,
2013-05-01 08:00:00,31.6,17.7,30.30,WSW,258,5.0,10.0,56,0.00,,,-99.99,Weather View 32 v70,2013-05-01 13:00:00,
2013-05-01 08:10:00,31.8,17.5,30.30,West,259,5.0,10.0,55,0.00,,,-99.99,Weather View 32 v70,2013-05-01 13:10:00,
2013-05-01 08:15:00,32.0,18.1,30.30,West,276,5.0,10.0,56,0.00,,,-99.99,Weather View 32 v70,2013-05-01 13:15:00,
2013-05-01 08:25:00,32.2,18.2,30.30,West,260,6.0,10.0,56,0.00,,,-99.99,Weather View 32 v70,2013-05-01 13:25:00,
2013-05-01 08:30:00,32.2,18.2,30.33,NW,324,11.0,11.0,56,0.00,,,-99.99,Weather View 32 v70,2013-05-01 13:30:00,
2013-05-01 08:40:00,32.4,18.4,30.33,West,261,8.0,11.0,56,0.00,,,-99.99,Weather View 32 v70,2013-05-01 13:40:00,
2013-05-01 08:45:00,32.5,18.6,30.33,WSW,256,10.0,11.0,56,0.00,,,-99.99,Weather View 32 v70,2013-05-01 13:45:00,
2013-05-01 08:55:00,32.5,18.2,30.33,NW,308,6.0,11.0,55,0.00,,,-99.99,Weather View 32 v70,2013-05-01 13:55:00,
2013-05-01 09:00:00,32.5,18.6,30.33,WNW,294,8.0,11.0,56,0.00,,,-99.99,Weather View 32 v70,2013-05-01 14:00:00,
2013-05-01 09:05:00,32.7,18.7,30.33,West,268,6.0,11.0,56,0.00,,,-99.99,Weather View 32 v70,2013-05-01 14:05:00,
2013-05-01 09:15:00,33.1,19.1,30.33,WSW,255,6.0,11.0,56,0.00,,,-99.99,Weather View 32 v70,2013-05-01 14:15:00,
2013-05-01 09:20:00,33.4,19.8,30.33,WSW,238,10.0,11.0,57,0.00,,,-99.99,Weather View 32 v70,2013-05-01 14:20:00,
2013-05-01 09:30:00,34.3,19.8,30.33,WNW,291,6.0,11.0,55,0.00,,,-99.99,Weather View 32 v70,2013-05-01 14:30:00,
2013-05-01 09:35:00,34.3,19.4,30.33,West,264,6.0,11.0,54,0.00,,,-99.99,Weather View 32 v70,2013-05-01 14:35:00,
2013-05-01 09:45:00,34.3,19.0,30.33,West,259,8.0,13.0,53,0.00,,,-99.99,Weather View 32 v70,2013-05-01 14:45:00,
2013-05-01 09:55:00,34.2,19.2,30.33,West,279,8.0,13.0,54,0.00,,,-99.99,Weather View 32 v70,2013-05-01 14:55:00,
2013-05-01 10:05:00,34.2,19.2,30.33,WNW,297,7.0,13.0,54,0.00,,,-99.99,Weather View 32 v70,2013-05-01 15:05:00,
2013-05-01 10:15:00,34.5,19.6,30.33,North,353,4.0,13.0,54,0.00,,,-99.99,Weather View 32 v70,2013-05-01 15:15:00,
2013-05-01 10:20:00,34.9,19.5,30.33,NNW,344,8.0,13.0,53,0.00,,,-99.99,Weather View 32 v70,2013-05-01 15:20:00,
2013-05-01 10:30:00,35.2,18.9,30.33,NE,43,5.0,13.0,51,0.00,,,-99.99,Weather View 32 v70,2013-05-01 15:30:00,
2013-05-01 10:35:00,35.4,19.1,30.33,WNW,290,5.0,13.0,51,0.00,,,-99.99,Weather View 32 v70,2013-05-01 15:35:00,
2013-05-01 10:45:00,36.1,17.8,30.33,North,357,6.0,11.0,47,0.00,,,-99.99,Weather View 32 v70,2013-05-01 15:45:00,
2013-05-01 10:55:00,36.7,17.8,30.33,West,262,6.0,13.0,46,0.00,,,-99.99,Weather View 32 v70,2013-05-01 15:55:00,
2013-05-01 11:05:00,36.7,17.8,30.36,NW,318,11.0,13.0,46,0.00,,,-99.99,Weather View 32 v70,2013-05-01 16:05:00,
2013-05-01 11:10:00,36.9,17.5,30.36,West,276,8.0,13.0,45,0.00,,,-99.99,Weather View 32 v70,2013-05-01 16:10:00,
2013-05-01 11:20:00,37.4,18.0,30.36,NW,308,8.0,13.0,45,0.00,,,-99.99,Weather View 32 v70,2013-05-01 16:20:00,
2013-05-01 11:30:00,37.0,18.2,30.36,WNW,294,5.0,13.0,46,0.00,,,-99.99,Weather View 32 v70,2013-05-01 16:30:00,
2013-05-01 11:35:00,37.4,18.0,30.36,North,353,6.0,13.0,45,0.00,,,-99.99,Weather View 32 v70,2013-05-01 16:35:00,
2013-05-01 11:45:00,38.1,18.6,30.39,WSW,258,9.0,13.0,45,0.00,,,-99.99,Weather View 32 v70,2013-05-01 16:45:00,
2013-05-01 11:55:00,38.5,19.0,30.39,North,357,3.0,13.0,45,0.00,,,-99.99,Weather View 32 v70,2013-05-01 16:55:00,
2013-05-01 12:05:00,39.0,18.4,30.39,WNW,289,6.0,13.0,43,0.00,,,-99.99,Weather View 32 v70,2013-05-01 17:05:00,
2013-05-01 12:15:00,38.7,18.6,30.39,NNW,339,6.0,13.0,44,0.00,,,-99.99,Weather View 32 v70,2013-05-01 17:15:00,
2013-05-01 12:20:00,39.2,19.1,30.39,North,350,5.0,13.0,44,0.00,,,-99.99,Weather View 32 v70,2013-05-01 17:20:00,
2013-05-01 12:30:00,39.7,19.0,30.39,North,2,6.0,13.0,43,0.00,,,-99.99,Weather View 32 v70,2013-05-01 17:30:00,
2013-05-01 12:35:00,39.9,19.2,30.39,NNW,332,6.0,13.0,43,0.00,,,-99.99,Weather View 32 v70,2013-05-01 17:35:00,
2013-05-01 12:45:00,39.7,19.0,30.39,NNW,342,8.0,13.0,43,0.00,,,-99.99,Weather View 32 v70,2013-05-01 17:45:00,
2013-05-01 12:55:00,39.9,19.7,30.39,NNW,327,8.0,13.0,44,0.00,,,-99.99,Weather View 32 v70,2013-05-01 17:55:00,
2013-05-01 13:05:00,40.3,19.5,30.39,WSW,241,8.0,13.0,43,0.00,,,-99.99,Weather View 32 v70,2013-05-01 18:05:00,
2013-05-01 13:15:00,40.3,19.5,30.42,West,280,11.0,13.0,43,0.00,,,-99.99,Weather View 32 v70,2013-05-01 18:15:00,
2013-05-01 13:25:00,40.3,19.5,30.42,NW,319,8.0,13.0,43,0.00,,,-99.99,Weather View 32 v70,2013-05-01 18:25:00,
2013-05-01 13:35:00,40.6,19.9,30.42,North,3,8.0,13.0,43,0.00,,,-99.99,Weather View 32 v70,2013-05-01 18:35:00,
2013-05-01 13:40:00,40.6,19.9,30.42,West,259,9.0,11.0,43,0.00,,,-99.99,Weather View 32 v70,2013-05-01 18:40:00,
2013-05-01 13:50:00,40.8,20.0,30.42,North,0,6.0,13.0,43,0.00,,,-99.99,Weather View 32 v70,2013-05-01 18:50:00,
2013-05-01 14:00:00,40.1,19.4,30.42,NW,326,8.0,13.0,43,0.00,,,-99.99,Weather View 32 v70,2013-05-01 19:00:00,
2013-05-01 14:08:00,40.3,20.1,30.42,WNW,286,6.0,13.0,44,0.00,,,-99.99,Weather View 32 v70,2013-05-01 19:08:00,
2013-05-01 14:15:00,40.3,20.1,30.42,WNW,302,6.0,13.0,44,0.00,,,-99.99,Weather View 32 v70,2013-05-01 19:15:00,
2013-05-01 14:20:00,40.6,20.9,30.42,NNE,32,5.0,13.0,45,0.00,,,-99.99,Weather View 32 v70,2013-05-01 19:20:00,
2013-05-01 14:25:00,41.4,21.1,30.42,North,353,8.0,13.0,44,0.00,,,-99.99,Weather View 32 v70,2013-05-01 19:25:00,
2013-05-01 14:35:00,41.5,20.7,30.42,NNW,341,6.0,13.0,43,0.00,,,-99.99,Weather View 32 v70,2013-05-01 19:35:00,
2013-05-01 14:40:00,41.4,20.5,30.42,North,1,5.0,13.0,43,0.00,,,-99.99,Weather View 32 v70,2013-05-01 19:40:00,
2013-05-01 14:45:00,41.4,20.5,30.42,North,357,8.0,12.0,43,0.00,,,-99.99,Weather View 32 v70,2013-05-01 19:45:00,
2013-05-01 14:50:00,41.4,20.5,30.42,NNW,343,5.0,12.0,43,0.00,,,-99.99,Weather View 32 v70,2013-05-01 19:50:00,
2013-05-01 15:00:00,42.1,21.2,30.42,North,353,4.0,12.0,43,0.00,,,-99.99,Weather View 32 v70,2013-05-01 20:00:00,
2013-05-01 15:05:00,42.1,21.2,30.42,North,353,3.0,12.0,43,0.00,,,-99.99,Weather View 32 v70,2013-05-01 20:05:00,
2013-05-01 15:15:00,42.6,21.1,30.42,NNE,31,8.0,11.0,42,0.00,,,-99.99,Weather View 32 v70,2013-05-01 20:15:00,
2013-05-01 15:20:00,42.6,21.7,30.42,NW,305,8.0,11.0,43,0.00,,,-99.99,Weather View 32 v70,2013-05-01 20:20:00,
2013-05-01 15:25:00,42.4,20.9,30.42,North,3,5.0,11.0,42,0.00,,,-99.99,Weather View 32 v70,2013-05-01 20:25:00,
2013-05-01 15:35:00,43.5,21.9,30.42,NNW,340,5.0,11.0,42,0.00,,,-99.99,Weather View 32 v70,2013-05-01 20:35:00,
2013-05-01 15:40:00,43.5,21.9,30.42,North,9,6.0,11.0,42,0.00,,,-99.99,Weather View 32 v70,2013-05-01 20:40:00,
2013-05-01 15:50:00,43.3,21.8,30.42,NW,313,10.0,11.0,42,0.00,,,-99.99,Weather View 32 v70,2013-05-01 20:50:00,
2013-05-01 15:55:00,43.2,21.6,30.42,NNE,22,7.0,11.0,42,0.00,,,-99.99,Weather View 32 v70,2013-05-01 20:55:00,
2013-05-01 16:05:00,43.9,22.2,30.45,NW,322,12.0,13.0,42,0.00,,,-99.99,Weather View 32 v70,2013-05-01 21:05:00,
2013-05-01 16:15:00,43.5,21.9,30.45,North,357,6.0,13.0,42,0.00,,,-99.99,Weather View 32 v70,2013-05-01 21:15:00,
2013-05-01 16:20:00,43.7,22.1,30.45,North,2,8.0,13.0,42,0.00,,,-99.99,Weather View 32 v70,2013-05-01 21:20:00,
2013-05-01 16:25:00,43.3,21.8,30.45,North,4,6.0,13.0,42,0.00,,,-99.99,Weather View 32 v70,2013-05-01 21:25:00,
2013-05-01 16:35:00,42.6,21.1,30.45,NW,317,7.0,13.0,42,0.00,,,-99.99,Weather View 32 v70,2013-05-01 21:35:00,
2013-05-01 16:40:00,42.4,21.5,30.45,East,85,4.0,13.0,43,0.00,,,-99.99,Weather View 32 v70,2013-05-01 21:40:00,
2013-05-01 16:50:00,42.4,22.0,30.45,NE,36,9.0,13.0,44,0.00,,,-99.99,Weather View 32 v70,2013-05-01 21:50:00,
2013-05-01 16:55:00,42.6,22.2,30.45,North,353,12.0,13.0,44,0.00,,,-99.99,Weather View 32 v70,2013-05-01 21:55:00,
2013-05-01 17:05:00,42.4,21.5,30.48,North,0,6.0,12.0,43,0.00,,,-99.99,Weather View 32 v70,2013-05-01 22:05:00,
2013-05-01 17:15:00,42.4,21.5,30.48,North,353,6.0,12.0,43,0.00,,,-99.99,Weather View 32 v70,2013-05-01 22:15:00,
2013-05-01 17:20:00,42.1,21.2,30.48,North,0,9.0,12.0,43,0.00,,,-99.99,Weather View 32 v70,2013-05-01 22:20:00,
2013-05-01 17:25:00,42.1,21.7,30.48,North,0,6.0,14.0,44,0.00,,,-99.99,Weather View 32 v70,2013-05-01 22:25:00,
2013-05-01 17:30:00,42.3,21.9,30.48,North,357,8.0,14.0,44,0.00,,,-99.99,Weather View 32 v70,2013-05-01 22:30:00,
2013-05-01 17:35:00,42.4,21.5,30.48,WNW,286,5.0,14.0,43,0.00,,,-99.99,Weather View 32 v70,2013-05-01 22:35:00,
2013-05-01 17:45:00,43.2,22.1,30.48,North,0,5.0,14.0,43,0.00,,,-99.99,Weather View 32 v70,2013-05-01 22:45:00,
2013-05-01 17:55:00,43.3,21.8,30.48,NNW,331,4.0,14.0,42,0.00,,,-99.99,Weather View 32 v70,2013-05-01 22:55:00,
2013-05-01 18:00:00,42.8,21.3,30.48,North,353,9.0,14.0,42,0.00,,,-99.99,Weather View 32 v70,2013-05-01 23:00:00,
2013-05-01 18:10:00,42.4,20.9,30.48,North,3,8.0,14.0,42,0.00,,,-99.99,Weather View 32 v70,2013-05-01 23:10:00,
2013-05-01 18:20:00,41.9,20.4,30.48,ESE,103,5.0,14.0,42,0.00,,,-99.99,Weather View 32 v70,2013-05-01 23:20:00,
2013-05-01 18:25:00,41.9,20.4,30.48,East,95,4.0,13.0,42,0.00,,,-99.99,Weather View 32 v70,2013-05-01 23:25:00,
2013-05-01 18:35:00,41.9,20.4,30.48,NNW,327,5.0,13.0,42,0.00,,,-99.99,Weather View 32 v70,2013-05-01 23:35:00,
2013-05-01 18:40:00,41.7,20.3,30.48,NE,42,4.0,13.0,42,0.00,,,-99.99,Weather View 32 v70,2013-05-01 23:40:00,
2013-05-01 18:50:00,42.1,21.2,30.51,NE,51,5.0,13.0,43,0.00,,,-99.99,Weather View 32 v70,2013-05-01 23:50:00,
2013-05-01 18:55:00,41.9,20.4,30.51,North,2,4.0,13.0,42,0.00,,,-99.99,Weather View 32 v70,2013-05-01 23:55:00,
2013-05-01 19:00:00,41.5,20.1,30.51,North,357,8.0,11.0,42,0.00,,,-99.99,Weather View 32 v70,2013-05-02 00:00:00,
2013-05-01 19:10:00,41.4,20.5,30.51,North,6,4.0,11.0,43,0.00,,,-99.99,Weather View 32 v70,2013-05-02 00:10:00,
2013-05-01 19:15:00,41.4,20.5,30.51,North,6,8.0,11.0,43,0.00,,,-99.99,Weather View 32 v70,2013-05-02 00:15:00,
2013-05-01 19:25:00,41.2,20.4,30.51,ENE,65,5.0,11.0,43,0.00,,,-99.99,Weather View 32 v70,2013-05-02 00:25:00,
2013-05-01 19:30:00,41.0,20.2,30.51,ENE,70,6.0,11.0,43,0.00,,,-99.99,Weather View 32 v70,2013-05-02 00:30:00,
2013-05-01 19:35:00,41.0,20.2,30.51,NNW,344,6.0,10.0,43,0.00,,,-99.99,Weather View 32 v70,2013-05-02 00:35:00,
2013-05-01 19:45:00,40.8,20.6,30.51,NW,305,4.0,10.0,44,0.00,,,-99.99,Weather View 32 v70,2013-05-02 00:45:00,
2013-05-01 19:55:00,40.3,20.6,30.51,NNE,30,3.0,10.0,45,0.00,,,-99.99,Weather View 32 v70,2013-05-02 00:55:00,
2013-05-01 20:00:00,40.3,20.6,30.51,North,357,5.0,10.0,45,0.00,,,-99.99,Weather View 32 v70,2013-05-02 01:00:00,
2013-05-01 20:10:00,40.1,20.4,30.51,ENE,78,4.0,10.0,45,0.00,,,-99.99,Weather View 32 v70,2013-05-02 01:10:00,
2013-05-01 20:15:00,39.9,20.3,30.54,NNW,328,5.0,10.0,45,0.00,,,-99.99,Weather View 32 v70,2013-05-02 01:15:00,
2013-05-01 20:20:00,39.9,20.3,30.54,North,2,3.0,10.0,45,0.00,,,-99.99,Weather View 32 v70,2013-05-02 01:20:00,
2013-05-01 20:30:00,39.7,20.6,30.54,North,350,6.0,10.0,46,0.00,,,-99.99,Weather View 32 v70,2013-05-02 01:30:00,
2013-05-01 20:35:00,39.6,20.5,30.54,ENE,66,3.0,10.0,46,0.00,,,-99.99,Weather View 32 v70,2013-05-02 01:35:00,
2013-05-01 20:45:00,39.2,21.1,30.54,NNE,12,2.0,9.0,48,0.00,,,-99.99,Weather View 32 v70,2013-05-02 01:45:00,
2013-05-01 20:50:00,38.8,20.8,30.54,North,357,6.0,9.0,48,0.00,,,-99.99,Weather View 32 v70,2013-05-02 01:50:00,
2013-05-01 20:55:00,38.7,20.6,30.54,ENE,74,0.0,9.0,48,0.00,,,-99.99,Weather View 32 v70,2013-05-02 01:55:00,
2013-05-01 21:05:00,38.3,20.8,30.54,ENE,61,4.0,9.0,49,0.00,,,-99.99,Weather View 32 v70,2013-05-02 02:05:00,
2013-05-01 21:12:00,38.1,20.6,30.54,ENE,58,2.0,9.0,49,0.00,,,-99.99,Weather View 32 v70,2013-05-02 02:12:00,
2013-05-01 21:20:00,37.8,20.8,30.54,North,3,0.0,9.0,50,0.00,,,-99.99,Weather View 32 v70,2013-05-02 02:20:00,
2013-05-01 21:30:00,37.4,20.4,30.54,NE,42,0.0,9.0,50,0.00,,,-99.99,Weather View 32 v70,2013-05-02 02:30:00,
2013-05-01 21:35:00,37.2,20.7,30.54,ENE,66,3.0,6.0,51,0.00,,,-99.99,Weather View 32 v70,2013-05-02 02:35:00,
2013-05-01 21:40:00,37.0,20.6,30.54,NE,55,2.0,6.0,51,0.00,,,-99.99,Weather View 32 v70,2013-05-02 02:40:00,
2013-05-01 21:50:00,36.7,20.7,30.54,ENE,71,0.0,6.0,52,0.00,,,-99.99,Weather View 32 v70,2013-05-02 02:50:00,
2013-05-01 21:55:00,36.5,20.5,30.54,NE,42,0.0,6.0,52,0.00,,,-99.99,Weather View 32 v70,2013-05-02 02:55:00,
2013-05-01 22:05:00,36.1,20.6,30.54,NE,45,0.0,6.0,53,0.00,,,-99.99,Weather View 32 v70,2013-05-02 03:05:00,
2013-05-01 22:10:00,35.8,20.3,30.54,NE,45,0.0,6.0,53,0.00,,,-99.99,Weather View 32 v70,2013-05-02 03:10:00,
2013-05-01 22:20:00,35.6,20.6,30.54,NE,49,4.0,6.0,54,0.00,,,-99.99,Weather View 32 v70,2013-05-02 03:20:00,
2013-05-01 22:25:00,35.6,21.0,30.54,ENE,60,3.0,4.0,55,0.00,,,-99.99,Weather View 32 v70,2013-05-02 03:25:00,
2013-05-01 22:35:00,35.6,21.0,30.54,NE,56,0.0,4.0,55,0.00,,,-99.99,Weather View 32 v70,2013-05-02 03:35:00,
2013-05-01 22:40:00,35.4,21.3,30.54,ENE,58,0.0,4.0,56,0.00,,,-99.99,Weather View 32 v70,2013-05-02 03:40:00,
2013-05-01 22:50:00,35.2,21.1,30.56,ENE,59,3.0,4.0,56,0.00,,,-99.99,Weather View 32 v70,2013-05-02 03:50:00,
2013-05-01 22:55:00,35.1,21.3,30.56,ENE,68,2.0,4.0,57,0.00,,,-99.99,Weather View 32 v70,2013-05-02 03:55:00,
2013-05-01 23:05:00,34.9,21.2,30.56,ENE,69,0.0,4.0,57,0.00,,,-99.99,Weather View 32 v70,2013-05-02 04:05:00,
2013-05-01 23:13:00,34.7,21.4,30.56,ENE,69,2.0,4.0,58,0.00,,,-99.99,Weather View 32 v70,2013-05-02 04:13:00,
2013-05-01 23:20:00,34.5,22.1,30.56,East,90,4.0,4.0,60,0.00,,,-99.99,Weather View 32 v70,2013-05-02 04:20:00,
2013-05-01 23:25:00,34.3,22.3,30.56,East,89,0.0,4.0,61,0.00,,,-99.99,Weather View 32 v70,2013-05-02 04:25:00,
2013-05-01 23:30:00,34.3,22.3,30.56,East,90,0.0,4.0,61,0.00,,,-99.99,Weather View 32 v70,2013-05-02 04:30:00,
2013-05-01 23:35:00,34.2,22.1,30.56,East,89,0.0,4.0,61,0.00,,,-99.99,Weather View 32 v70,2013-05-02 04:35:00,
2013-05-01 23:40:00,34.0,21.9,30.56,East,89,0.0,4.0,61,0.00,,,-99.99,Weather View 32 v70,2013-05-02 04:40:00,
2013-05-01 23:50:00,33.4,21.4,30.56,East,89,0.0,4.0,61,0.00,,,-99.99,Weather View 32 v70,2013-05-02 04:50:00,
2013-05-01 23:55:00,33.1,20.7,30.56,East,89,0.0,4.0,60,0.00,,,-99.99,Weather View 32 v70,2013-05-02 04:55:00,